Location: Grassland Mountain Observatory
(35.7543°N, 82.8038°W)
Time: 06:26:17
(UTC-05:00)

Envisat - Pass Details

Date: 06 December 2021
Orbit: 764 x 766 km, 98.2° (Epoch: 20 January)

Event Time Altitude Azimuth Distance (km) Brightness Sun altitude
Rises 06:00:07 0° 4° (N) 3,235 6.1 -17.3°
Reaches altitude 10° 06:02:30 10° 358° (N) 2,305 5.3 -16.8°
Maximum altitude 06:07:18 44° 288° (WNW) 1,056 3.2 -15.9°
Drops below altitude 10° 06:12:03 10° 217° (SW) 2,290 5.3 -14.9°
Sets 06:14:26 0° 211° (SSW) 3,212 6.1 -14.5°
